Natathlon Départemental 12-13 ans

Départementale

DÉCINES-CHARPIEU

Du Samedi 31 Janvier 2015 au Dimanche 01 Fevrier 2015

Bassin de 25m

200 Dos Dames

Séries

Nom Année Club Pays Temps Points Niv.
1 ZOCCARATO Laura 2002 ND VILLEFRANCHE-EN-BEAUJOLAIS FRA 2:42:68 924
2 MURAT Dana 2002 LYON NATATION FRA 2:43:04 919
3 VIGUIER Margot 2002 ND VILLEFRANCHE-EN-BEAUJOLAIS FRA 2:43:08 918
4 PONZETTO Nina 2003 AS CALUIRE FRA 2:47:06 869
5 DOGAN Mélodie 2002 EMS BRON FRA 2:47:85 859
6 HUYNH Gena 2002 ND VILLEFRANCHE-EN-BEAUJOLAIS FRA 2:55:00 774
7 DA SILVA Léa 2002 EMS BRON FRA 2:56:89 752
8 BENTZ Mandoline 2003 TRITON CLUB BELLEVILLE FRA 2:57:06 750
9 COSTE Manon 2002 AQUATIC CLUB FIDESIEN FRA 2:57:74 742
10 REYNES Celia 2002 TRITON CLUB BELLEVILLE FRA 2:57:84 741
11 MONTANGERAND Inès 2002 LYON NATATION FRA 2:58:33 735
12 BROUEL Bérénice 2002 EMS BRON FRA 2:58:93 729
13 PEYRE Alix 2002 LYON NATATION FRA 2:59:31 724
14 DUCHENES Marion 2003 EMS BRON FRA 2:59:34 724
15 HOMAWOO Maëlle 2002 LYON NATATION FRA 2:59:63 721
16 COMTE Cristina 2003 LYON NATATION FRA 3:00:29 713
17 PIVET Clara 2003 TRITON CLUB BELLEVILLE FRA 3:00:85 707
18 GIRON Hannah 2002 LYON NATATION FRA 3:01:78 697
19 DA COSTA Aaliyah 2003 CMO VÉNISSIEUX FRA 3:03:59 677
20 FARGIER Jeanne 2002 LYON NATATION FRA 3:03:89 674
21 CONFAVREUX Léane 2003 TRITON CLUB BELLEVILLE FRA 3:04:57 666
22 DELORD Penelope 2002 LYON NATATION FRA 3:06:04 650
23 SZYBOWSKI Alexandra 2003 EMS BRON FRA 3:06:86 642
24 RACADOT Margot 2002 LYON NATATION FRA 3:07:11 639
25 LEMAN Charlotte 2003 AC DÉCINES FRA 3:08:38 626
26 BENALI Lina 2002 TRITON CLUB BELLEVILLE FRA 3:08:91 620
27 MARQUIER-GOTTELAND Ombline 2002 LYON NATATION FRA 3:09:20 617
28 SAUMIER Capucine 2002 LYON NATATION FRA 3:09:64 613
29 BERLET Floriane 2003 EMS BRON FRA 3:09:65 613
30 CHOTARD Jade 2003 AC DÉCINES FRA 3:09:70 612
31 MONSIAUD Elisa 2003 LYON NATATION FRA 3:10:57 603
32 STRACQUALURSI Eva 2002 ND VILLEFRANCHE-EN-BEAUJOLAIS FRA 3:10:59 603
33 FERRI Elsa 2003 CHASSIEU NATATION FRA 3:12:28 586
34 VERMANDE Morgane 2003 LYON NATATION FRA 3:12:76 581
35 FERKOUS Ines 2002 CMO VÉNISSIEUX FRA 3:12:81 580
36 DEBBAH Amel 2003 AQUATIC CLUB FIDESIEN FRA 3:16:07 548
37 DAGUIN Elisa 2003 LYON NATATION FRA 3:16:92 540
38 PESTRE Soa 2003 TRITON CLUB BELLEVILLE FRA 3:17:21 537
39 TURC Ségolène 2002 EMS BRON FRA 3:17:40 535
40 CAGNON Tennessee 2002 TRITON CLUB BELLEVILLE FRA 3:17:74 532
41 PHILIPPON Elizabeth 2003 EMS BRON FRA 3:17:90 530
42 JUPIN Laura 2002 ND VILLEFRANCHE-EN-BEAUJOLAIS FRA 3:18:23 527
43 CHALOT Chloé 2002 EMS BRON FRA 3:18:50 524
44 MERCIER Jade 2002 TRITON CLUB BELLEVILLE FRA 3:19:50 515
45 MAES Joséphine 2003 LYON NATATION FRA 3:20:33 507
46 DADOMO Clara 2002 EMS BRON FRA 3:20:53 505
47 CHERET Juliette 2003 LYON NATATION FRA 3:20:60 504
48 FAURE Mathilde 2002 EMS BRON FRA 3:20:90 502
49 BOISSY Manon 2002 AC DÉCINES FRA 3:22:62 486
50 DERIGNY Emilie 2003 CN TARARE FRA 3:23:08 481
51 LIMORTE Mathilde 2002 LYON NATATION FRA 3:23:98 473
52 ZUCCALLI Anna 2002 LYON NATATION FRA 3:24:31 470
53 SMAILI Hassina 2003 CMO VÉNISSIEUX FRA 3:24:31 470
54 SAY-CASADO Alya 2002 VILLEURBANNE NATATION FRA 3:25:76 457
55 ESCOFFIER Marie-Neige 2002 EMS BRON FRA 3:25:98 455
56 AYARI Eya 2002 EMS BRON FRA 3:26:75 448
57 NASRI Tahnia 2003 LYON NATATION FRA 3:27:23 444
58 DANGUIRAL Cynthia 2003 CN TARARE FRA 3:27:99 437
59 EL GUERFI Feyza 2003 CMO VÉNISSIEUX FRA 3:28:82 430
60 FEVRIER Marie-Fleur 2003 EMS BRON FRA 3:29:97 420
61 LEPINASSE Agathe 2003 LYON NATATION FRA 3:32:74 397
62 DANGUIRAL Estelle 2003 CN TARARE FRA 3:34:06 386
63 CHAMPIN Charlène 2003 EMS BRON FRA 3:38:94 347
64 BAUMSTARK Lilou 2003 CHASSIEU NATATION FRA 3:39:21 345
65 GONIN Noellia 2003 ND VILLEFRANCHE-EN-BEAUJOLAIS FRA 3:39:46 343
66 DELLAL Margaux 2003 UJS LA MULATIÈRE NATATION FRA 3:40:97 331
67 MATHIEU Camille 2003 LYON NATATION FRA 3:41:25 329
68 NGUYEN Léa 2003 EMS BRON FRA 3:42:86 317
69 MARQUIER-GOTTELAND Apolline 2003 LYON NATATION FRA 3:43:72 311
70 DEVAY Laura 2002 CN TARARE FRA 3:45:82 295
71 BOUZERZOUR Zahra 2003 EMS BRON FRA 3:46:43 291
72 WERBROUCK Alice 2003 TRITON CLUB BELLEVILLE FRA 3:48:14 279
73 TEIXEIRA Marine 2003 CHASSIEU NATATION FRA 3:50:18 265
74 DUMAS Lola 2003 CN TARARE FRA 4:00:69 198
75 VERHULST Isaline 2003 EMS BRON FRA - Disq.
76 LEMAITRE Lison 2002 ND VILLEFRANCHE-EN-BEAUJOLAIS FRA - Disq.
77 YVON-MILLASSEAU Gwendoline 2002 CN TARARE FRA - Disq.
78 AOUAR Narjisse 2003 EMS BRON FRA - Disq.
79 PHARABET Anouck 2002 CN TARARE FRA - Disq.
80 ARSENAULT Lea 2003 ND VILLEFRANCHE-EN-BEAUJOLAIS FRA - Disq.
81 MAES Gaelle 2003 CN TARARE FRA - Disq.
82 FRAISSE Roxane 2002 UJS LA MULATIÈRE NATATION FRA - Disq.